Regional Weather Roundup
Issued by NWS Lake Charles, LA

Home | Current Version | Previous Version | Text Only | Print | Product List | Glossary On
Versions: 1 2 3 4 5 6 7 8 9 10 11 12 13 14 15 16 17 18 19 20 21 22 23 24 25 26 27 28 29 30 31 32 33 34 35 36 37 38 39 40 41 42 43 44 45 46 47 48 49 50
000
ASUS44 KLCH 261610
RWRLCH
REGIONAL WEATHER ROUNDUP
NATIONAL WEATHER SERVICE LAKE CHARLES LA
1100 AM CDT MON JUN 26 2017

Note: "fair" indicates few or no clouds below 12,000 feet with no
significant weather and/or obstructions to visibility.


ACROSS SOUTHEAST TEXAS

CITY           SKY/WX    TMP DP  RH WIND       PRES   REMARKS
BEAUMONT       CLOUDY    81  73  76 E7        30.10F
BEAUMONT CITY  FAIR     N/A N/A N/A MISG      30.11F
ORANGE         PTSUNNY   82  74  77 NE5       30.13R
JASPER         SUNNY     83  71  66 NE5       30.14F
$$

ACROSS CENTRAL LOUISIANA

CITY           SKY/WX    TMP DP  RH WIND       PRES   REMARKS
LEESVILLE      MOSUNNY   82  68  63 NE5       30.12F
FULLERTON      FAIR      81  68  64 VRB3      30.11F
ALEXANDRIA INT SUNNY     80  66  62 VRB6      30.13F
ESLER FIELD    SUNNY     80  64  58 NE7       30.15F
DERIDDER       FAIR      81  68  63 NE6       30.14F
OAKDALE        SUNNY     81  69  66 NE6       30.13S
OPELOUSAS      FAIR      77  67  72 NE5       30.13S
$$

ACROSS SOUTHWEST AND SOUTH CENTRAL LOUISIANA

CITY           SKY/WX    TMP DP  RH WIND       PRES   REMARKS
SULPHUR        PTSUNNY   85  72  66 E6        30.12S
LAKE CHARLES   CLOUDY    82  75  79 CALM      30.11S
CHENNAULT INT  PTSUNNY   81  73  78 VRB5      30.11F
CAMERON PHI    SUNNY     81  73  78 NE7       30.09S
DEQUINCY       FAIR      81  70  68 NE5       30.12S
JENNINGS       FAIR     N/A N/A N/A NE3       30.12R
LAFAYETTE      CLOUDY    79  71  76 CALM      30.12S
NEW IBERIA     MOSUNNY   81  70  69 E8        30.12R
ABBEVILLE      FAIR      79  75  89 E3        30.11S
PATTERSON      MOSUNNY   82  75  79 E8        30.11S
SALT POINT       N/A     83  73  72 VRB6      30.08F
$$

SELECTED SITES ACROSS THE REGION

CITY           SKY/WX    TMP DP  RH WIND       PRES   REMARKS
HOUSTON BUSH   PTSUNNY   83  72  69 E7        30.10F
HOUSTON HOBBY  PTSUNNY   84  73  69 NE10      30.09F
GALVESTON      CLOUDY    84  77  79 NE13      30.10S
COLLEGE STAT   PTSUNNY   78  73  84 NE5       30.13S
CONROE         SUNNY     83  72  69 NE5       30.11F
HUNTSVILLE     MOSUNNY   83  69  62 CALM      30.13F
LUFKIN         SUNNY     81  68  64 VRB3      30.13F
SHREVEPORT     PTSUNNY   81  65  58 E12       30.16F
MONROE         SUNNY     80  64  58 VRB6      30.19S
NATCHEZ MS     CLOUDY    79  66  64 E8        30.17S
BATON ROUGE    CLOUDY    77  67  71 NE8       30.13R
N.O. INTL ARPT CLOUDY    81  69  67 NE10      30.11S
SLIDELL        MOSUNNY   81  66  60 NE8       30.12S
$$

MARINE REPORTS

STATION/POSITION TIME  SKY/WX   TEMP    WIND        PRES    VSBY
                                AIR SEA DIR/SP/G
                 (UTC)          (F)     (DEG/KT/KT) (MB)    (MI)
BUOY 30 S HIGH I 1450            81 83   70/ 10/ 12 1018.9
WVE H/P(F/S)=  2/ 5

SEA RIM ST PARK  1600            80     110/  8/ 10 1019.9S
PORT ARTHUR      1548            80 83   80/  4/  7 1019.7F
SABINE PASS N    1548            80 85   80/  6/ 10 1020.9S
TEXAS POINT      NOT AVBL
CALCASIEU PASS   1548            79 83   70/  5/  7   N/A
LK CHARLES BEACH 1548            82 82              1020.1F
MARSH ISLAND     NOT AVBL
FRESH WATER LOCK 1548            79 86   80/  9/ 11 1019.5R
AMERADA PASS     1548            80 81   70/  6/ 10 1019.1F
$$



USA.gov is the U.S. government's official web portal to all federal, state and local government web resources and services.